KB6VSE Weather Reports


Display with metric or nautical units.
time (UTC)temp
F
wind
direction
speed
MPH
gust
MPH
rain 1hr
in
rain 24hr
in
rain mn
in
humidity
%
barometer
mb
20260505010050 56 0 0.0 0.0 0.00 0.00 0.00 84 1016.0
20260505004548 57 0 0.0 0.0 0.00 0.00 0.00 82 1016.0
20260505003050 57 0 0.0 0.0 0.00 0.00 0.00 81 1015.8
20260505001601 58 0 0.0 0.0 0.00 0.00 0.00 79 1015.7
20260505000103 58 0 0.0 0.0 0.00 0.00 0.00 79 1015.7
20260504234603 59 0 0.0 0.0 0.00 0.00 0.00 78 1015.5
20260504233040 60 0 0.0 0.0 0.00 0.00 0.00 78 1015.5
20260504231547 61 0 0.0 0.0 0.00 0.00 0.00 77 1015.6
20260504230047 62 0 0.0 0.0 0.00 0.00 0.00 77 1015.6
20260504224558 62 0 0.0 0.0 0.00 0.00 0.00 76 1015.6
20260504223045 63 0 0.0 0.0 0.00 0.00 0.00 75 1015.6
20260504221549 63 0 0.0 0.0 0.00 0.00 0.00 74 1015.6
20260504220051 64 0 0.0 0.0 0.00 0.00 0.00 74 1015.7
20260504214550 64 0 0.0 0.0 0.00 0.00 0.00 73 1015.8
20260504213109 64 0 0.0 0.0 0.00 0.00 0.00 73 1016.0
20260504211555 64 0 0.0 0.0 0.00 0.00 0.00 73 1015.9
20260504210044 63 0 0.0 0.0 0.00 0.00 0.00 76 1016.2
20260504204552 62 0 0.0 0.0 0.00 0.00 0.00 76 1016.3
20260504203040 62 0 0.0 0.0 0.00 0.00 0.00 76 1016.3
20260504201548 62 0 0.0 0.0 0.00 0.00 0.00 77 1016.4
20260504200049 62 0 0.0 0.0 0.00 0.00 0.00 76 1016.3
20260504194558 63 0 0.0 0.0 0.00 0.00 0.00 74 1016.3
20260504193052 63 0 0.0 0.0 0.00 0.00 0.00 74 1016.3
20260504191541 63 0 0.0 0.0 0.00 0.00 0.00 73 1016.7
20260504184543 61 0 0.0 1.0 0.00 0.00 0.00 82 1016.6
20260504183046 60 0 0.0 0.0 0.00 0.00 0.00 80 1017.0
20260504181552 60 0 0.0 0.0 0.00 0.00 0.00 79 1017.1
20260504180047 59 0 0.0 0.0 0.00 0.00 0.00 81 1016.6
20260504174555 58 0 0.0 0.0 0.00 0.00 0.00 86 1016.7
20260504173051 56 0 0.0 0.0 0.00 0.00 0.00 86 1016.8
20260504171548 56 0 0.0 0.0 0.00 0.00 0.00 88 1016.8
20260504090116 53 0 0.0 0.0 0.00 0.00 0.00 93 1015.9
20260504081547 53 0 0.0 0.0 0.00 0.00 0.00 93 1015.7
20260504044600 54 0 0.0 0.0 0.00 0.00 0.00 86 1015.9
20260504043050 54 0 0.0 0.0 0.00 0.00 0.00 86 1015.4
20260504041545 54 0 0.0 0.0 0.00 0.00 0.00 85 1015.9
20260504040048 54 0 0.0 0.0 0.00 0.00 0.00 84 1015.5
20260504034552 54 0 0.0 0.0 0.00 0.00 0.00 84 1015.5
20260504033053 54 0 0.0 0.0 0.00 0.00 0.00 83 1015.2
20260504031546 55 0 0.0 0.0 0.00 0.00 0.00 84 1015.2
20260504030050 55 0 0.0 0.0 0.00 0.00 0.00 82 1015.4
20260504024548 55 0 0.0 0.0 0.00 0.00 0.00 82 1015.2
20260504023050 55 0 0.0 0.0 0.00 0.00 0.00 81 1015.1
20260504021550 55 0 0.0 0.0 0.00 0.00 0.00 81 1015.0
20260504020044 56 0 0.0 0.0 0.00 0.00 0.00 82 1014.7
20260504014550 56 0 0.0 0.0 0.00 0.00 0.00 81 1014.5
20260504013050 56 0 0.0 0.0 0.00 0.00 0.00 81 1014.3
20260504011550 56 0 0.0 0.0 0.00 0.00 0.00 81 1014.0